Location: Newark
(52.2090°N, 4.1550°W)
Time: 22:59:42
(UTC+00:00)

deb Explorer IX - All Passes

Search period start: 20 September 2019 00:00
Search period end: 30 September 2019 00:00
Orbit: 544 x 1107 km, 38.8° (Epoch: 20 September)

Date Brightness Start Highest point End Pass type
(mag) Time Alt. Az. Time Alt. Az. Time Alt. Az.
20 Sep - 02:20:04 10° SSW 02:22:15 13° SSE 02:24:18 10° SE visible
20 Sep - 04:05:29 10° SW 04:08:03 15° S 04:10:30 10° SSE visible
21 Sep - 01:57:50 10° SSW 02:00:20 14° SSE 02:02:41 10° SE visible
21 Sep - 03:43:23 10° SW 03:46:11 15° S 03:48:47 10° SSE visible
22 Sep - 01:35:36 10° SSW 01:38:26 14° SSE 01:41:03 10° SE night (unlit)
22 Sep - 03:21:18 10° SW 03:24:17 16° S 03:27:04 10° SSE visible
23 Sep - 01:13:22 10° SSW 01:16:30 15° S 01:19:24 10° SE night (unlit)
23 Sep - 02:59:11 10° SW 03:02:23 17° S 03:05:20 10° SSE visible
24 Sep - 00:51:09 10° SSW 00:54:34 16° S 00:57:44 10° SE night (unlit)
24 Sep - 02:37:04 10° SW 02:40:29 17° S 02:43:38 10° SE visible
25 Sep - 00:28:55 10° SSW 00:32:38 17° S 00:36:02 10° SE night (unlit)
25 Sep - 02:14:56 10° SW 02:18:35 18° S 02:21:54 10° SE night (unlit)
25 Sep - 04:03:45 10° SSW 04:04:15 10° SSW 04:04:45 10° SSW visible
26 Sep - 00:06:42 10° SSW 00:10:41 18° S 00:14:20 10° SE night (unlit)
26 Sep - 01:52:47 10° SW 01:56:41 19° S 02:00:12 10° SE night (unlit)
26 Sep - 03:41:18 10° SW 03:42:21 11° SSW 03:43:23 10° SSW visible
26 Sep - 22:02:01 10° SSE 22:02:49 10° SSE 22:03:37 10° SE night (unlit)
26 Sep - 23:44:30 10° SSW 23:48:45 19° S 23:52:37 10° SE night (unlit)
27 Sep - 01:30:39 10° SW 01:34:46 20° S 01:38:28 10° SE night (unlit)
27 Sep - 03:19:00 10° SW 03:20:27 11° SSW 03:21:51 10° S night (unlit)
27 Sep - 21:39:10 10° SSE 21:40:50 11° SSE 21:42:27 10° SE night (unlit)
27 Sep - 23:22:18 10° SSW 23:26:48 20° S 23:30:53 10° SE night (unlit)
28 Sep - 01:08:30 10° SW 01:12:50 20° S 01:16:44 10° SE night (unlit)
28 Sep - 02:56:45 10° SW 02:58:33 12° SSW 03:00:16 10° S night (unlit)
28 Sep - 21:16:39 10° S 21:18:51 12° SSE 21:20:58 10° SE night (unlit)
28 Sep - 23:00:06 10° SW 23:04:49 21° S 23:09:07 10° SE night (unlit)
29 Sep - 00:46:21 10° SW 00:50:54 21° S 00:54:59 10° SE night (unlit)
29 Sep - 02:34:31 10° SW 02:36:37 12° SSW 02:38:38 10° S night (unlit)
29 Sep - 20:54:14 10° S 20:56:51 12° SSE 20:59:23 10° SE visible
29 Sep - 22:37:55 10° SW 22:42:51 21° S 22:47:21 10° ESE night (unlit)
